sat.trackr.live / text

‹ back to catalog

STARLINK-36642

NORAD 67659 · 2026-022M

PAYLOAD ACTIVE UNKNOWN

§ Identity

Operator
Country
US
Launch date
2026-02-02
Launch site
AFWTR
Launch vehicle
Mass (kg)
RCS (m²)

Purposes: comms

External: N2YO · Heavens-Above · Gunter

§ Orbital elements

Epoch: 2026-09-19T21:24:47.774304Z

Period
93.91 min
Inclination
97.2849°
Eccentricity
0.0001119
Mean motion
15.33454836 rev/d
Perigee alt
464.7 km
Apogee alt
466.3 km
Semi-major
6,843.7 km
B*
4.1731e-4
RAAN
294.4581°
Arg perigee
111.3548°
Mean anomaly
248.7814°
Rev number
3,533

§ Raw data

STARLINK-366421 67659U 26022M   26262.89221961  .00013425  00000+0  41731-3 0  99942 67659  97.2849 294.4581 0001119 111.3548 248.7814 15.33454836 35332

JSON: /api/v1/satellites/67659 · /tle

For live sub-satellite position, see the globe view (requires WebGL).

§ Visibility from observer

Set your observer location to see the next 7 days of passes ≥ 10°. The values pass through the URL so the page stays shareable.

No JS? Fill the form by hand. The geolocation button needs JavaScript.